Location: Boston
(42.3580°N, 71.0600°W)
Time: 06:25:45
(UTC-04:00)

Envisat - Pass Details

Date: 12 October 2017
Orbit: 764 x 766 km, 98.2° (Epoch: 20 October)

Event Time Altitude Azimuth Distance (km) Brightness Sun altitude
Exits shadow 21:33:57 23° 285° (WNW) 1,583 5.1 -38.1°
Drops below altitude 10° 21:37:05 10° 321° (NW) 2,309 6.1 -38.6°
Sets 21:39:48 0° 334° (NNW) 3,240 6.9 -39.0°
